Tracking 19847 objects as of 16-Sep-2019
HD Live streaming from Space Station
objects crossing your sky now

FENGYUN 1C DEB

Track FENGYUN 1C DEB now!
10-day predictions


NORAD ID: 33646
Int'l Code: 1999-025DEF
Perigee: 837.2 km
Apogee: 1,017.3 km
Inclination: 98.6 °
Period: 103.4 minutes
Semi major axis: 7298 km
RCS: 0.0171 m2 (small)
Launch date: May 10, 1999
Source: People's Republic of China (PRC)
Launch site: Taiyaun Space Center, China (TSC)

Note: This is SATELLITE DEBRIS
aabbcc
Your satellite tracking list
Your tracking list is empty




NASA's NSSDC Master Catalog

Two Line Element Set (TLE):
1 33646U 99025DEF 19258.37239444 +.00000113 +00000-0 +11090-3 0  9997
2 33646 098.5617 300.6041 0123412 025.8091 334.9159 13.92437007402345
Source of the keplerian elements: AFSPC